Regional Weather Roundup
Issued by NWS

Home | Current Version | Previous Version | Graphics & Text | Print | Product List | Glossary On
Versions: 1 2 3 4 5 6 7 8 9 10 11 12 13 14 15 16 17 18 19 20 21 22 23 24 25 26 27 28 29 30 31 32 33 34 35 36 37 38 39 40 41 42 43 44 45 46 47 48 49 50
000
ASUS43 KLMK 280510
RWRKY
KENTUCKY REGIONAL WEATHER ROUNDUP
NATIONAL WEATHER SERVICE LOUISVILLE KY
1200 AM EST TUE FEB 28 2017

NOTE "FAIR" INDICATES FEW OR NO CLOUDS BELOW 12,000 FEET
WITH NO SIGNIFICANT WEATHER AND/OR OBSTRUCTIONS TO VISIBILITY.

KYZ001>023-026-027-061>063-070>075-280600-
WESTERN AND SOUTH CENTRAL KENTUCKY

CITY           SKY/WX    TMP DP  RH WIND       PRES   REMARKS
PADUCAH        CLOUDY    56  45  66 S8        30.06F
HENDERSON      PTCLDY    52  41  66 SE10      30.09S
OWENSBORO      PTCLDY    53  45  74 S14       30.12F
HOPKINSVILLE   CLOUDY    53  46  76 SE13      30.11F
BOWLING GREEN  CLOUDY    50  44  80 SE3       30.18F
GLASGOW        CLEAR     49  42  78 SE5       30.18F
$$

KYZ024-025-028>034-038-045-046-053-280600-
NORTH CENTRAL KENTUCKY

CITY           SKY/WX    TMP DP  RH WIND       PRES   REMARKS
LOUISVILLE/SDF MOCLDY    50  39  66 S10       30.16F
LOUISVILLE/LOU PTCLDY    52  41  66 S7        30.16F
FORT KNOX        N/A    N/A N/A N/A MISG        N/A
$$

KYZ035>037-039>044-047>052-055>060-089>105-280600-
NORTHEAST KENTUCKY

CITY           SKY/WX    TMP DP  RH WIND       PRES   REMARKS
LEXINGTON      CLEAR     46  36  68 SE8       30.20S
COVINGTON      MOCLDY    43  39  86 S6        30.18F
FRANKFORT      PTCLDY    47  37  68 SE6       30.18F
$$

KYZ054-064>069-076>088-106>120-280600-
SOUTHEAST KENTUCKY

CITY           SKY/WX    TMP DP  RH WIND       PRES   REMARKS
JACKSON        CLEAR     48  33  56 S3        30.23F
LONDON         CLEAR     40  33  76 CALM      30.23F
SOMERSET       CLEAR     43  37  81 CALM      30.25R
MIDDLESBORO    CLEAR     39  35  86 CALM      30.28F
MONTICELLO     CLEAR     39  37  92 NE8       30.24F WCI  33
$$





USA.gov is the U.S. government's official web portal to all federal, state and local government web resources and services.